GFSFLT2_prec_radar_000.txt.gz
Reflectivity
-20 -20 -20 -20 -20 -20 -20 -20 -15 0 -18 -20 -20 -20 -20 -19 -0 5 12 18 -4 -1 -1 -20 19 -2 12
-20 -20 -20 -20 -20 -20 -20 -20 -19 -20 -20 -20 5 -19 -12 11 21 17 17 17 17 6 18 21 18 18 20
-20 -20 -20 -20 -20 -20 -20 -20 -20 -20 -20 -20 -20 -16 5 5 5 8 3 13 12 -5 12 2 7 6 9
-20 -17 -4 -20 -20 -20 -20 -20 -20 -20 -20 -1 -6 -20 -20 -20 -20 -20 -20 -20 -20 -8 -11 -7 -4 -6 -19
16 -4 -20 -20 -20 -20 -20 -20 -20 -15 -20 -20 -20 -20 -20 -20 -20 -20 -7 7 2 11 13 6 15 9 -20
-20 -20 -20 -20 -20 -20 4 -20 -20 -12 -20 -19 -15 -20 -20 -20 -20 -2 6 10 3 7 15 13 9 10 16
-20 -20 -20 -20 3 -8 -20 3 -20 -20 -19 -18 -20 -20 -20 -20 -20 -20 0 2 0 12 15 14 -2 5 15
-20 -9 5 -14 -20 -17 -20 -6 -20 -20 -20 -5 -20 -20 -20 -20 -20 -20 0 1 8 12 13 15 15 17 16
11 -7 -20 -20 -15 4 -11 -20 -20 -20 -20 -20 -20 -20 -20 -20 -20 -19 -16 -16 -9 3 4 4 6 1 2
-20 -20 -20 -20 -20 -20 -20 7 -18 -15 -20 2 -17 -16 8 -3 -20 -20 -20 -20 -20 -20 -5 3 5 1 -4
-20 -20 -20 -20 -20 -20 -20 0 12 3 -20 13 6 -20 -8 -16 -20 -18 -19 -20 -20 -19 -20 -15 6 4 3
-20 -20 -20 -20 -20 -20 -20 -20 -16 12 -1 -18 14 -0 2 -10 -15 -9 1 2 -10 -20 -16 -7 3 24 20
-20 -20 -20 -20 -20 -20 -20 -20 -18 1 -13 -20 -6 -13 2 10 3 -17 10 -4 -10 -12 -12 8 4 4 12
-20 -20 -20 -20 -20 -20 -20 -20 -20 -20 -20 -20 -19 -8 5 1 18 12 6 18 2 -12 9 -0 14 14 22
-20 -20 -20 -20 -20 -20 -20 -20 -20 -20 -20 -20 -20 3 1 0 -4 8 2 6 26 28 6 -3 13 23 30
-20 -20 -20 -20 -20 -20 -20 -20 -20 -20 -20 -20 -20 -15 -12 -4 -9 5 -13 -19 2 23 15 17 11 28 24
-20 -20 -14 -20 -20 -20 -20 -20 -20 -20 -20 -20 -20 -20 -20 -20 -20 4 8 -7 -17 2 16 8 17 24 27

GFSFLT2_prec_radar_003.txt.gz
Reflectivity
-20 -20 -20 -20 -20 -20 -20 -20 -20 -20 -20 -20 -14 -13 -3 -15 17 18 -7 -14 18 19 20 20 20 20 19
-20 -20 -20 -20 -20 7 8 -20 -20 -20 -20 -20 -20 -7 -15 6 4 18 19 19 12 13 15 -18 16 -20 -2
-20 -20 -17 8 7 -13 -20 -20 -20 -20 -20 -20 -20 -20 -20 -5 7 -6 2 6 -13 -6 12 8 9 16 16
-9 7 -5 -20 -20 -20 -20 -20 -20 -20 -20 -14 -20 -20 -20 -20 -20 -20 -20 -20 -6 -7 2 10 10 -3 -8
8 -8 -20 -20 -20 -20 -9 -2 1 -3 -20 -20 -20 -20 -20 -20 -20 -20 -3 2 7 1 12 15 16 4 14
7 -7 -20 -20 -20 5 12 8 -20 -20 -20 -20 -20 -20 -20 -20 -20 -6 -0 4 5 -6 7 7 14 15 19
-20 -20 -20 -20 10 10 8 8 6 -17 -19 -20 -20 -20 -20 -20 -20 -20 0 -14 2 9 12 14 13 13 12
-20 -7 12 2 1 3 6 10 -4 -20 -20 -20 -20 -20 -20 -20 -20 -20 -20 2 6 8 10 10 11 12 14
9 -5 -20 -20 -17 4 4 -15 -20 -20 -20 -20 -20 -20 -20 -20 -20 -20 -4 -3 -15 -7 4 4 -1 0 -7
-20 -20 -20 -20 -20 -20 -7 1 -20 -15 -20 -3 -18 -2 -0 -14 -4 -18 -20 -6 -20 -11 1 5 6 3 8
-20 -20 -20 -20 -20 -20 -20 7 7 -5 -20 12 5 -20 4 -19 -20 -20 -8 3 -8 -20 -20 -3 18 12 12
-20 -20 -20 -20 -20 -20 -20 -20 -9 3 -7 2 11 4 -5 -20 -20 -20 -20 -2 4 -4 -12 -11 -17 1 16
-20 -20 -20 -20 -20 -20 -20 -20 -20 -19 -20 -20 1 -20 -10 6 8 -20 -12 -13 4 1 -6 -8 -14 -15 -6
-20 -20 -20 -20 -20 -20 -20 -20 -20 -20 -19 -20 -15 5 4 -20 -10 -19 -7 6 4 21 26 19 6 9 17
-20 -20 -20 -20 -20 -20 -20 -20 -20 -20 -20 -20 -20 -20 -19 -20 -20 -19 -14 -20 5 23 20 8 26 31 28
-20 -20 -20 -20 -20 -20 -20 -20 -20 -20 -20 -19 -20 -20 -20 0 -13 -20 -6 -16 1 17 23 22 4 0 13
-20 -20 -20 -20 -20 -20 -20 -20 -20 -20 -20 -20 -20 -18 -20 -20 -20 -20 6 -16 -17 -4 13 30 16 7 24

GFSFLT2_prec_radar_006.txt.gz
Reflectivity
-20 -20 -20 -20 -20 -20 -20 -20 -20 -20 -20 -20 -20 -20 -20 -8 -17 -7 -6 -4 6 3 -8 20 20 21 23
-20 -20 -20 -20 -20 -20 -20 -20 -20 -20 -20 -20 -20 -11 -20 -20 -20 -20 11 -12 13 18 19 17 18 17 16
-20 -20 1 -13 -6 -20 -20 -20 -20 -20 -20 -20 -20 -20 -18 -20 -20 -20 -20 -7 -4 4 2 11 1 16 -12
0 12 5 -15 -20 -20 -20 -20 -20 -20 -20 -20 -20 -20 -20 -20 -20 -20 -19 -20 -15 -7 -8 3 5 10 1
13 4 -17 -20 -20 -20 -3 -7 -10 -20 -20 -20 -20 -20 -20 -20 -20 -20 -20 -17 -10 -1 10 11 10 12 10
10 -4 -20 -20 -20 4 10 9 -1 -20 -20 -20 -20 -20 -20 -20 -20 -20 -5 -11 2 4 1 12 13 9 -17
-1 -20 -16 -4 9 14 7 10 6 -18 -0 -20 -20 -20 -20 -20 -20 -20 -20 -9 1 7 10 11 12 10 10
-20 -10 7 10 -7 1 1 5 1 -16 -20 -12 -20 -20 -20 -20 -20 -20 -20 -20 -4 5 10 11 10 10 10
5 11 -9 -20 -14 -1 8 10 -20 -20 -20 -20 -20 -20 -20 -20 -20 -20 -20 -17 -16 0 9 10 10 11 8
-20 -20 -20 -20 -20 -20 -1 9 7 -8 -20 -7 -13 -1 -16 -20 -20 -20 -20 -20 -20 -20 3 10 11 14 15
-20 -20 -20 -20 -20 -20 -20 8 8 -0 -20 7 6 4 7 -20 -20 -20 -20 -20 -20 -20 -18 -20 4 16 26
-20 -20 -20 -8 -20 -20 -9 1 3 5 -8 4 11 9 -3 -18 -20 -20 -20 -20 -20 -9 3 -3 8 8 10
-20 -4 -12 -17 -5 -2 -3 -2 -2 -5 -16 -20 5 3 7 -1 -20 -20 -19 -20 -20 -11 14 16 25 11 16
-20 -20 -20 -20 -20 -12 0 -20 -16 -20 -20 -20 -14 7 4 3 -18 -20 -20 -20 -2 -6 6 -6 15 14 26
-19 -17 -20 -20 -20 -17 -2 -7 -20 -20 -20 -20 -20 -4 6 4 -14 -17 -20 -20 3 -11 7 3 -1 22 10
-13 1 -20 -20 -17 -1 -14 -6 -15 -20 -20 -8 -3 1 -18 -20 -20 -5 -11 2 -6 -9 2 15 -6 -15 -12
-17 -19 1 3 -19 -20 -20 -20 -20 -20 -20 5 4 6 5 -20 -20 -20 6 -11 -19 -0 -1 -2 13 8 27

GFSFLT2_prec_radar_012.txt.gz
Reflectivity
-20 -20 -20 -20 -20 -20 -20 -20 -20 -20 -20 -20 -20 -20 -20 -2 -20 2 -12 9 7 9 15 19 21 21 20
-20 -20 -20 -20 -20 -20 -20 -20 -20 -20 -20 -20 -20 -20 -20 -20 -19 -4 1 -7 9 12 13 9 11 8 9
-20 -20 -20 -20 -19 -20 -20 -20 -20 -20 -20 -20 -20 -20 -20 -7 -15 -3 -12 -19 -17 -5 -6 -12 10 6 7
-20 -20 -20 -9 -20 -20 -20 -20 -20 -20 -20 -20 -20 -20 -20 -20 -20 -20 -20 -20 -20 -20 -0 7 7 9 11
-12 -8 -19 -20 -20 -20 -20 -20 -20 -20 -20 -20 -20 -20 -20 -20 -20 -20 -20 -20 -2 -2 5 5 7 12 14
8 -20 -20 -20 -20 -20 -20 -20 -14 -20 -20 -20 -20 -20 -20 -20 -20 -20 -20 -20 -9 -17 -8 0 3 8 12
-19 -20 -20 -20 -20 -18 -14 6 -20 -20 -20 -20 -20 -20 -20 -20 -20 -20 -20 -20 -20 -20 -20 8 -0 8 12
-20 -20 -20 -11 9 3 -19 -20 -20 -20 -20 -20 -20 -20 -20 -20 -20 -20 -20 -20 -20 -20 -20 -17 1 12 12
-20 -2 2 -16 -20 -20 -20 -20 -20 -20 -20 -20 -20 -20 -20 -20 -20 -20 -20 -20 -20 -20 -20 -20 -17 2 2
-20 -20 -20 -20 -20 -20 -20 -20 -20 -19 -20 8 -15 -19 -16 -20 -20 -20 -20 -20 -20 -20 -20 -20 -20 -20 -18
-20 -20 -20 -20 -20 -20 -20 -9 -3 -16 -20 10 6 -20 -6 -20 -20 -20 -20 -20 -20 -20 -20 -20 -20 -14 -9
-20 -20 -20 -20 -20 -20 -20 -20 -20 -20 -20 -11 14 -11 -0 -11 -20 -20 -20 -20 -20 -20 -20 -20 -20 -9 2
-20 -20 -20 -20 -20 -20 -20 -20 -20 -20 -20 -20 -15 -11 -3 -5 -19 -20 -20 -20 -20 -20 -20 -20 -20 -20 -20
-20 -20 -20 -20 -20 -20 -20 -20 -20 -20 -20 -20 -20 -20 -5 -20 -16 -19 -20 -20 -20 -20 -20 -20 -20 -20 -20
-20 -20 -20 -20 -20 -20 -20 -20 -15 -20 -20 -20 -20 -20 -20 -20 -14 -20 -20 -20 -20 -20 -20 -20 -20 -11 -16
-20 -20 -20 -20 -20 -20 -20 -20 -20 -20 -20 -20 -20 -20 -20 -19 7 4 -7 -20 -20 -20 -20 -17 -20 -19 -20
-20 -20 -20 -20 -20 -20 -20 -20 -20 -20 -20 -20 -20 -7 -4 -20 -20 1 12 -5 -20 -20 -20 -20 -17 -20 -20

GFSFLT2_prec_radar_015.txt.gz
Reflectivity
-20 -20 -20 -20 -20 -20 -20 -20 -20 -20 -20 -20 -20 -20 -20 -13 -19 -12 -19 3 4 14 10 19 19 19 19
-20 -20 -20 -20 -20 -20 -20 -20 -20 -20 -20 -20 -20 -20 -20 -17 -8 -20 4 8 11 13 12 0 8 17 14
-20 -20 -20 -20 -20 -20 -20 -20 -20 -20 -20 -20 -20 -20 -20 -20 -20 -2 -19 -20 -17 -6 -4 -3 9 12 12
-20 -20 -20 -20 -20 -20 -20 -20 -20 -20 -20 -20 -20 -20 -20 -20 -20 -20 -20 -9 1 -8 3 10 12 12 11
-20 -17 -8 -20 -20 -20 -20 -20 -20 -20 -20 -20 -20 -20 -20 -20 -20 -20 -20 -1 -0 6 6 10 11 13 15
-0 -20 -20 -20 -20 -20 -20 -20 -20 -20 -20 -20 -20 -20 -20 -20 -20 -20 -20 -5 -0 9 11 11 13 12 14
-20 -20 -20 -20 -20 -17 -10 7 -20 -20 -20 -20 -20 -20 -20 -20 -20 -20 -20 -20 -3 -7 11 11 11 9 9
-20 -20 -20 -14 3 -15 -20 -20 -20 -20 -20 -20 -20 -20 -20 -20 -20 -20 -20 -20 -20 -15 -13 -20 -15 -12 -9
-20 -3 0 -17 -20 -20 -20 -20 -20 -20 -20 -20 -20 -20 -20 -20 -20 -20 -20 -20 -20 -20 -20 -5 -20 -4 2
-20 -20 -20 -20 -20 -20 -20 -20 -20 -19 -20 -20 -20 -19 -9 -20 -20 -20 -20 -20 -20 -20 -20 -20 -20 -20 -20
-20 -20 -20 -20 -20 -20 -20 -20 -20 -20 -20 0 7 -20 -5 -20 -20 -20 -20 -20 -20 -20 -20 -20 -20 -10 -19
-20 -20 -20 -20 -20 -20 -20 -20 -20 -20 -20 -20 11 -13 -5 -13 -20 -20 -20 -20 -20 -20 -20 -20 -20 -20 1
-20 -20 -20 -20 -20 -20 -20 -20 -20 -20 -20 -20 -20 -20 -16 -6 -20 -20 -20 -20 -20 -20 -20 -20 -20 -20 -20
-20 -20 -20 -20 -20 -20 -20 -20 -20 -20 -20 -20 -20 -11 6 -15 -16 -18 -20 -20 -20 -20 -20 -20 -20 -20 -6
-20 -20 -20 -20 -20 -20 -20 -20 -20 -20 -20 -20 -20 -20 -20 -15 5 -19 -20 -20 -20 -20 -20 -14 -20 -20 -20
-20 -20 -20 -20 -20 -20 -20 -20 -20 -20 -20 -20 -20 -20 -20 -1 7 3 -8 -20 -20 -20 -20 -17 -20 -16 -20
-20 -20 -20 -20 -19 -20 -20 -20 -20 -20 -20 -20 7 7 3 -20 -9 7 17 2 -20 -18 -20 -20 -14 -20 -20

GFSFLT2_prec_radar_018.txt.gz
Reflectivity
-20 -20 -20 -20 -20 -20 -20 -20 -20 -20 -20 -20 -13 -20 -20 -20 -20 -20 -4 6 9 4 16 20 20 19 19
-20 -20 -20 -20 -20 -20 -20 -20 -20 -20 -20 -20 -20 -20 -20 -20 4 -1 -6 2 4 9 -1 -11 6 -1 -20
-20 -20 -20 -20 -20 -20 -20 -20 -20 -20 -20 -20 -20 -20 -20 -4 -20 -20 -20 -18 -16 -19 -20 -18 8 10 10
-20 -20 -20 -20 -20 -20 -20 -20 -20 -20 -20 -20 -20 -20 -20 -20 -20 -20 -20 -20 -1 2 5 4 9 11 14
-20 -20 -20 -20 -20 -20 -20 -20 -20 -20 -20 -20 -20 -20 -20 -20 -20 -20 -20 -6 2 4 9 8 10 14 14
-20 -20 -20 -20 -20 -20 -20 -20 -20 -20 -20 -20 -20 -20 -20 -20 -20 -20 -20 -20 0 5 8 10 11 11 12
-20 -20 -20 -20 -20 -20 -17 -5 -20 -20 -20 -20 -20 -20 -20 -20 -20 -20 -20 -20 -20 -0 -3 6 9 12 17
-20 -20 -20 -20 -9 -14 -20 -20 -20 -20 -20 -20 -20 -20 -20 -20 -20 -20 -20 -20 -20 -7 -1 -2 -2 -17 4
-20 -20 -13 -15 -18 -20 -20 -20 -20 -20 -20 -20 -20 -20 -20 -20 -20 -20 -20 -20 -20 -20 -20 -1 -10 10 7
-20 -20 -20 -20 -20 -20 -20 -20 -20 -20 -20 -20 -20 -20 -20 -20 -20 -20 -20 -20 -20 -20 -20 -20 -11 -20 -20
-20 -20 -20 -20 -20 -20 -20 -20 -20 -20 -20 6 1 -20 -5 -20 -20 -20 -20 -20 -20 -20 -20 -20 -20 -11 -20
-20 -20 -20 -20 -20 -20 -20 -20 -20 -20 -20 -19 12 -20 -9 -12 -20 -20 -20 -20 -20 -20 -20 -20 -20 -14 1
-20 -20 -20 -20 -20 -20 -20 -20 -20 -20 -0 7 11 -9 -14 -9 -20 -20 -20 -20 -20 -20 -20 -20 -20 -20 -7
-20 -20 -20 -20 -20 -20 -20 -20 -20 -20 -20 -20 -7 0 2 -19 -16 -18 -20 -20 -20 -20 -20 -20 -20 -20 -20
-20 -20 -20 -20 -20 -20 -20 -20 -20 -20 -20 -20 -20 -20 -20 -13 9 -16 -20 -20 -20 -20 -20 -20 -20 -20 -20
-20 -20 -20 -20 -20 -20 -20 -20 -20 -20 -20 -20 -20 -20 -20 1 5 0 -7 -20 -20 -20 -20 5 -16 -20 -20
-20 -20 -20 -20 -19 -20 -20 -20 -20 -20 -20 -20 -20 -3 1 -20 5 14 20 9 -16 -20 -20 -20 -20 -20 -20

GFSFLT2_prec_radar_024.txt.gz
Reflectivity
-20 -20 -20 -20 -20 -20 -20 -20 -20 -20 -20 -20 -20 -4 -2 -5 -20 -20 -20 -3 9 3 11 10 11 11 5
-20 -20 -20 -20 -20 -20 -20 -20 -20 -20 -20 -20 -20 -20 -20 -20 -20 -20 4 10 -1 -19 3 -14 -20 -19 1
-20 -20 -20 -20 -20 -20 -20 -20 -20 -20 -20 -20 -20 -20 -20 -20 -14 -17 -20 -20 -8 -20 -20 -20 -10 -15 5
-20 -20 -20 -20 -20 -20 -20 -20 -20 -20 -20 -20 -20 -20 -20 -20 -20 -20 -20 -20 -14 -17 -4 1 2 1 -7
-20 -20 -20 -20 -20 -20 -20 -20 -20 -20 -20 -20 -20 -20 -20 -20 -20 -20 -20 -20 -20 -9 1 -1 10 11 10
-20 -20 -20 -20 -20 -20 -20 -20 -20 -20 -20 -20 -20 -20 -20 -20 -20 -20 -20 -20 -20 -6 0 3 5 10 11
-20 -20 -20 -20 -20 -20 -20 -20 -20 -20 -20 -20 -20 -20 -20 -20 -20 -20 -20 -20 -20 -20 -4 5 7 6 9
-20 -20 -20 -20 -20 -6 -20 -20 -20 -20 -20 -20 -20 -20 -20 -20 -20 -20 -20 -20 -20 -20 -7 3 5 5 8
-20 -20 -16 -16 -20 -20 -20 -20 -20 -20 -20 -20 -20 -20 -20 -20 -20 -20 -20 -20 -20 -20 -20 -14 3 0 -12
-20 -20 -20 -20 -20 -20 -20 -20 -20 -20 -20 -20 -20 -20 -20 -20 -20 -20 -20 -20 -20 -20 -20 -20 -19 -17 -20
-20 -20 -20 -20 -20 -20 -20 -20 -20 -20 -20 -6 -7 -20 -17 -20 -20 -20 -20 -20 -20 -20 -20 -20 -20 -3 -16
-20 -20 -20 -20 -20 -20 -20 -20 -20 -20 -20 -20 11 -20 -10 -19 -20 -20 -20 -20 -20 -20 -20 -20 -20 -20 -11
-20 -20 -20 -20 -20 -20 -20 -20 -20 -20 -20 -20 -20 -20 -16 -7 -20 -20 -20 -20 -20 -20 -20 -20 -20 -20 -20
-20 -20 -20 -20 -20 -20 -20 -20 -20 -20 -20 -20 -20 -20 -18 -20 -20 -20 -20 -20 -20 -20 -20 -20 -20 -20 -20
-20 -20 -20 -20 -20 -20 -20 -20 -20 -20 -20 -20 -20 -20 -20 -20 -20 -20 -20 -20 -20 -20 -20 -20 -20 -20 -20
-20 -20 -20 -20 -20 -20 -20 -20 -20 -20 -20 -20 -20 -20 -20 -12 8 5 6 -20 -20 -20 -19 0 -20 -20 -20
-20 -20 -20 -20 -20 -20 -20 -20 -20 -20 -20 -20 -20 -18 4 -20 -18 11 15 9 -9 -20 -20 -17 -17 -20 -20

GFSFLT2_prec_radar_030.txt.gz
Reflectivity
31 19 7 14 16 11 16 5 -20 -20 -14 -20 -20 -20 -20 -18 -9 -4 -20 -20 -20 -9 -8 -1 7 10 15
35 19 13 18 21 26 19 18 11 8 -20 -20 -20 -20 -20 -20 -20 -19 -20 -20 -1 -20 0 -19 -19 -20 -17
22 16 -14 -16 16 23 16 10 -11 -20 -20 -20 -20 -20 -20 -20 -20 -20 -20 -20 -20 -15 0 2 3 4 -20
6 -18 -6 5 8 -5 -13 -20 -20 -17 -19 -20 -20 -20 -20 -20 -20 -20 -20 -20 -20 -20 -12 -9 -2 -3 -19
-6 -8 -20 -20 -20 -14 -16 -14 -18 -20 -20 -20 -20 -20 -20 -20 -20 -20 -20 -20 -20 -20 -8 -1 -6 2 11
-8 -20 -20 -20 -20 -20 -20 -20 -20 -20 -20 -20 -20 -20 -20 -20 -20 -20 -20 -20 -20 -20 -7 -5 -5 0 4
-13 -20 -20 -20 -16 1 -1 1 -5 -20 -20 -20 -20 -20 -20 -20 -20 -20 -20 -20 -20 -20 -20 -3 3 6 12
-20 -20 -20 -20 -5 1 2 -11 -20 -20 -20 -13 -20 -20 -20 -20 -20 -20 -20 -20 -20 -20 -20 -11 -0 -0 -4
-20 -20 -20 -20 -20 -20 -20 -4 -9 -20 -20 -20 -20 -20 -20 -20 -20 -20 -20 -20 -20 -20 -20 -20 -20 -1 -12
-20 -20 -20 -20 -20 -20 -20 -4 -4 -11 -20 -20 -20 -20 -20 -20 -20 -20 -20 -20 -20 -20 -20 -20 -20 -8 -1
-20 -20 -20 -20 -20 -20 -20 -20 -20 -20 -20 -19 -15 -20 -11 -12 -20 -20 -20 -20 -20 -20 -20 -20 -20 -8 -10
-20 -20 -20 -20 -20 -20 -20 -20 -20 -16 -20 1 1 -10 -5 -20 -20 -20 -20 -20 -20 -20 -20 -20 -20 -2 -2
-20 -20 -20 -20 -20 -20 -20 -20 -20 -14 -16 -5 -20 -20 -14 -20 -20 -20 -20 -20 -20 -20 -6 -4 -1 1 0
-20 -20 -20 -20 -20 -20 -20 -20 -9 -20 -20 -20 -17 1 -20 -1 3 -19 -17 -16 -20 -20 -8 -0 2 1 1
-20 -20 -20 -20 -20 -20 -20 -13 -10 -12 -20 -20 -16 -4 -8 -17 -19 -20 -20 -20 -3 -11 -7 -19 -16 -8 -20
-20 -20 -14 -11 -18 -20 -17 -16 -20 -15 -17 -20 -14 -18 -3 -20 -14 -20 -6 -5 -14 3 3 5 -4 -9 -3
-9 -14 -7 -5 -19 -12 -20 -6 -20 -20 -7 -20 -2 5 -16 -20 -20 -20 -20 -20 -20 -0 1 6 -8 -20 1